FW0878 Weather Reports


Display with metric or nautical units.
time (UTC)temp
F
wind
direction
speed
MPH
gust
MPH
rain 1hr
in
rain 24hr
in
rain mn
in
humidity
%
barometer
mb
20260504050307 66 69 5.0 13.0 0.00 0.00 0.00 55 1009.1
20260504045808 67 294 2.0 16.0 0.00 0.00 0.00 54 1009.1
20260504045308 68 337 5.0 13.0 0.00 0.00 0.00 52 1009.0
20260504044808 67 293 5.0 16.0 0.00 0.00 0.00 53 1009.0
20260504044308 68 248 6.0 9.0 0.00 0.00 0.00 52 1008.9
20260504043807 68 267 5.0 15.0 0.00 0.00 0.00 52 1008.9
20260504042807 67 0 6.0 13.0 0.00 0.00 0.00 53 1008.8
20260504042307 67 318 5.0 13.0 0.00 0.00 0.00 52 1008.9
20260504041807 67 295 6.0 16.0 0.00 0.00 0.00 53 1009.0
20260504041308 67 22 3.0 10.0 0.00 0.00 0.00 53 1008.8
20260504040808 67 200 5.0 16.0 0.00 0.00 0.00 53 1008.9
20260504035307 68 21 6.0 14.0 0.00 0.00 0.00 51 1009.1
20260504034807 68 339 5.0 10.0 0.00 0.00 0.00 51 1008.9
20260504034307 68 315 6.0 13.0 0.00 0.00 0.00 51 1008.9
20260504033807 67 43 3.0 14.0 0.00 0.00 0.00 52 1008.9
20260504032807 67 134 4.0 14.0 0.00 0.00 0.00 52 1009.0
20260504032307 68 294 5.0 15.0 0.00 0.00 0.00 50 1008.8
20260504031806 68 0 5.0 12.0 0.00 0.00 0.00 50 1008.9
20260504030807 67 271 6.0 15.0 0.00 0.00 0.00 52 1009.2
20260504030307 67 251 7.0 20.0 0.00 0.00 0.00 51 1009.3
20260504025807 67 69 6.0 20.0 0.00 0.00 0.00 52 1009.3
20260504024307 66 357 5.0 9.0 0.00 0.00 0.00 51 1009.5
20260504023307 67 334 6.0 13.0 0.00 0.00 0.00 50 1009.5
20260504022808 66 249 3.0 15.0 0.00 0.00 0.00 51 1009.6
20260504022307 67 358 3.0 9.0 0.00 0.00 0.00 51 1009.8
20260504021808 67 315 4.0 14.0 0.00 0.00 0.00 50 1009.8
20260504021309 68 114 5.0 14.0 0.00 0.00 0.00 49 1009.9
20260504020307 67 20 6.0 13.0 0.00 0.00 0.00 50 1010.0
20260504015307 66 336 6.0 12.0 0.00 0.00 0.00 52 1010.2
20260504014807 66 177 3.0 12.0 0.00 0.00 0.00 52 1010.2
20260504014308 66 337 4.0 20.0 0.00 0.00 0.00 52 1010.3
20260504013807 66 43 7.0 20.0 0.00 0.00 0.00 53 1010.3
20260504012308 65 230 5.0 17.0 0.00 0.00 0.00 54 1010.4
20260504011806 65 250 6.0 13.0 0.00 0.00 0.00 54 1010.5
20260504011308 64 271 6.0 16.0 0.00 0.00 0.00 55 1010.4
20260504010807 65 317 5.0 10.0 0.00 0.00 0.00 54 1010.4
20260504010308 65 18 5.0 12.0 0.00 0.00 0.00 55 1010.5
20260504005808 65 20 3.0 10.0 0.00 0.00 0.00 55 1010.6
20260504005307 64 183 5.0 13.0 0.00 0.00 0.00 56 1010.6
20260504004808 64 338 6.0 12.0 0.00 0.00 0.00 56 1010.4
20260504004307 64 41 5.0 13.0 0.00 0.00 0.00 57 1010.6
20260504003806 63 291 5.0 15.0 0.00 0.00 0.00 57 1010.6
20260504003307 64 227 7.0 13.0 0.00 0.00 0.00 57 1010.6
20260504002807 64 20 5.0 10.0 0.00 0.00 0.00 57 1010.8
20260504002307 63 292 3.0 14.0 0.00 0.00 0.00 57 1010.7
20260504001806 64 205 6.0 12.0 0.00 0.00 0.00 57 1010.8
20260504001308 63 0 3.0 10.0 0.00 0.00 0.00 58 1010.9
20260504000808 63 320 5.0 13.0 0.00 0.00 0.00 59 1010.8
20260504000306 63 338 4.0 13.0 0.00 0.00 0.00 60 1010.7
20260503235308 63 336 6.0 13.0 0.00 0.03 0.00 59 1010.8
20260503234807 63 250 5.0 13.0 0.00 0.05 0.00 59 1010.8
20260503234307 63 202 5.0 15.0 0.00 0.06 0.00 60 1010.8
20260503233807 62 293 3.0 14.0 0.00 0.08 0.00 61 1010.9
20260503232808 62 337 5.0 13.0 0.00 0.10 0.00 63 1011.0
20260503232307 61 335 6.0 15.0 0.00 0.11 0.00 64 1011.0
20260503231806 61 274 5.0 10.0 0.00 0.11 0.00 64 1011.2
20260503231307 61 341 3.0 8.0 0.00 0.11 0.00 64 1011.2
20260503230807 61 5 3.0 9.0 0.00 0.11 0.00 65 1011.0
20260503230308 60 314 4.0 13.0 0.00 0.11 0.00 66 1011.1
20260503225807 60 314 3.0 8.0 0.00 0.11 0.11 66 1010.9
20260503225308 59 316 3.0 9.0 0.00 0.11 0.11 67 1011.0
20260503224807 59 340 5.0 10.0 0.00 0.11 0.11 67 1011.0
20260503224308 58 292 3.0 8.0 0.00 0.11 0.11 68 1011.2
20260503223806 59 45 2.0 8.0 0.00 0.11 0.11 68 1011.1
20260503223307 59 21 5.0 8.0 0.00 0.11 0.11 66 1011.2
20260503222808 59 316 3.0 6.0 0.00 0.11 0.11 68 1011.1
20260503222308 58 359 3.0 6.0 0.00 0.11 0.11 69 1011.0
20260503221807 57 2 2.0 6.0 0.00 0.11 0.11 71 1011.2
20260503221307 56 358 4.0 8.0 0.00 0.11 0.11 72 1011.2
20260503220808 56 20 2.0 6.0 0.00 0.11 0.11 73 1011.2
20260503220308 55 293 1.0 6.0 0.00 0.11 0.11 75 1011.3
20260503215807 55 0 3.0 6.0 0.00 0.11 0.11 76 1011.3
20260503215307 55 0 2.0 6.0 0.00 0.11 0.11 77 1011.3
20260503214307 54 22 2.0 3.0 0.00 0.11 0.11 78 1011.1
20260503213807 54 22 2.0 3.0 0.00 0.11 0.11 79 1011.1
20260503212807 54 338 1.0 6.0 0.00 0.11 0.11 80 1011.0
20260503211807 54 359 1.0 6.0 0.00 0.11 0.11 80 1011.0
20260503211308 54 21 2.0 6.0 0.00 0.11 0.11 80 1010.9
20260503210807 54 315 3.0 6.0 0.00 0.11 0.11 80 1010.7
20260503210307 54 72 3.0 8.0 0.00 0.11 0.11 80 1010.9
20260503205807 54 358 3.0 8.0 0.00 0.11 0.11 81 1011.0
20260503205308 54 338 3.0 7.0 0.00 0.11 0.11 81 1010.8
20260503204807 54 339 3.0 8.0 0.00 0.11 0.11 81 1010.7
20260503204308 54 273 3.0 9.0 0.00 0.11 0.11 81 1010.8
20260503203808 54 358 3.0 8.0 0.00 0.11 0.11 81 1010.8
20260503202308 54 339 2.0 9.0 0.00 0.11 0.11 80 1010.6
20260503201808 54 338 3.0 7.0 0.00 0.11 0.11 80 1010.8
20260503201307 54 358 3.0 7.0 0.00 0.11 0.11 80 1010.8
20260503200808 54 43 3.0 6.0 0.00 0.11 0.11 80 1010.8
20260503200308 54 315 4.0 7.0 0.00 0.11 0.11 80 1010.8
20260503195807 54 339 2.0 6.0 0.00 0.11 0.11 80 1010.5
20260503195308 54 358 3.0 8.0 0.00 0.11 0.11 80 1010.6
20260503194807 54 228 2.0 5.0 0.00 0.11 0.11 80 1010.6
20260503194307 54 251 1.0 6.0 0.00 0.11 0.11 80 1010.7
20260503193807 54 25 2.0 6.0 0.00 0.11 0.11 79 1010.6
20260503193308 54 21 3.0 7.0 0.00 0.11 0.11 79 1010.7
20260503192807 54 22 2.0 6.0 0.00 0.11 0.11 79 1010.9
20260503192308 54 22 3.0 7.0 0.00 0.11 0.11 79 1010.8
20260503191807 54 359 2.0 7.0 0.00 0.11 0.11 79 1010.9
20260503191308 54 22 2.0 7.0 0.00 0.11 0.11 79 1011.0
20260503190307 54 358 2.0 7.0 0.00 0.11 0.11 79 1011.0
20260503185807 54 336 3.0 8.0 0.00 0.11 0.11 79 1010.9
20260503185308 54 339 3.0 8.0 0.00 0.11 0.11 79 1011.0
20260503184807 54 20 2.0 8.0 0.00 0.11 0.11 80 1010.8
20260503184308 54 45 3.0 8.0 0.00 0.11 0.11 80 1010.8
20260503183807 54 317 3.0 9.0 0.00 0.11 0.11 80 1011.0
20260503182807 54 357 3.0 6.0 0.00 0.11 0.11 81 1011.1
20260503182307 54 67 2.0 5.0 0.00 0.11 0.11 81 1011.0
20260503181807 54 22 2.0 6.0 0.00 0.11 0.11 81 1011.0
20260503181308 54 21 3.0 7.0 0.00 0.11 0.11 82 1011.1
20260503180807 54 340 2.0 5.0 0.00 0.11 0.11 82 1011.1
20260503180306 54 23 2.0 6.0 0.00 0.11 0.11 81 1011.1
20260503175808 54 0 2.0 5.0 0.00 0.11 0.11 81 1011.1
20260503175308 54 293 3.0 6.0 0.00 0.11 0.11 81 1011.2
20260503174808 54 46 2.0 7.0 0.00 0.11 0.11 82 1011.2
20260503174308 54 357 3.0 8.0 0.00 0.11 0.11 82 1011.4
20260503173307 54 339 2.0 6.0 0.00 0.11 0.11 83 1011.4
20260503172807 54 339 3.0 6.0 0.00 0.11 0.11 83 1011.5
20260503172307 55 339 3.0 7.0 0.00 0.11 0.11 83 1011.5
20260503170808 55 21 3.0 8.0 0.00 0.11 0.11 83 1011.7
20260503170307 55 43 3.0 9.0 0.00 0.11 0.11 83 1011.7
20260503131308 56 21 1.0 3.0 0.00 0.11 0.11 80 1012.4
20260503130808 56 22 1.0 3.0 0.00 0.11 0.11 80 1012.3
20260503130307 56 316 1.0 2.0 0.00 0.11 0.11 80 1012.2
20260503110807 59 340 2.0 6.0 0.00 0.11 0.11 75 1012.4
20260503110308 59 340 2.0 3.0 0.00 0.11 0.11 75 1012.5
20260503090308 59 0 1.0 2.0 0.00 0.11 0.11 70 1011.7
20260503081308 60 317 0.0 2.0 0.00 0.11 0.11 66 1010.9
20260503080307 60 0 1.0 2.0 0.00 0.11 0.11 65 1011.1
20260503072807 62 300 1.0 6.0 0.00 0.11 0.11 60 1010.8
20260503071806 63 273 1.0 6.0 0.00 0.11 0.11 59 1010.7
20260503071308 63 338 1.0 3.0 0.00 0.11 0.11 59 1010.6
20260503070809 64 315 1.0 5.0 0.00 0.11 0.11 58 1010.7
20260503070307 64 290 1.0 3.0 0.00 0.11 0.11 57 1010.5
20260503060307 67 293 3.0 8.0 0.00 0.11 0.11 49 1010.6
20260503054807 69 288 5.0 13.0 0.00 0.11 0.11 45 1010.4
20260503054308 70 270 1.0 7.0 0.00 0.11 0.11 42 1010.4
20260503053308 70 112 2.0 7.0 0.00 0.11 0.11 41 1010.3
20260503052807 70 289 1.0 7.0 0.00 0.11 0.11 42 1010.2
20260503052307 70 269 2.0 6.0 0.00 0.11 0.11 43 1010.3
20260503051806 70 251 3.0 6.0 0.00 0.11 0.11 42 1010.2
20260503051307 69 156 3.0 5.0 0.00 0.11 0.11 45 1010.2